A-11 Canister half - Orbit

View from above orbital plane
View from above orbital plane
View from above satellite
View from above satellite

Ground track
Ground track

The orbit data is extracted from the following two-line orbital elements,

1 00051U 60009C   13168.48448573 -.00000086  00000-0  00000+0 0  4554
2 00051 047.2145 337.8053 0104516 120.6642 290.1871 12.18222985352376
Epoch (UTC): 17 June 2013 11:37:39
Eccentricity: 0.0104516
inclination: 47.2145°
perigee height: 1517 km
apogee height: 1683 km
right ascension of ascending node: 337.8053°
argument of perigee: 120.6642°
revolutions per day: 12.18222985
mean anomaly at epoch: 290.1871°
orbit number at epoch: 35237

The dashed part of the orbit path shows where the satellite is in the earth's shadow,  

Developed and maintained by Chris Peat, Heavens-Above GmbH. Please read the updated FAQ before sending e-mail. Imprint. DLR